Regional Weather Roundup
Issued by NWS

Home | Current Version | Previous Version | Text Only | Print | Product List | Glossary On
Versions: 1 2 3 4 5 6 7 8 9 10 11 12 13 14 15 16 17 18 19 20 21 22 23 24 25 26 27 28 29 30 31 32 33 34 35 36 37 38 39 40 41 42 43 44 45 46 47 48 49 50
000
ASUS46 KSTO 270115
RWRCA

NORTHERN AND CENTRAL CA REGIONAL WEATHER ROUNDUP
NATIONAL WEATHER SERVICE SACRAMENTO CA
600 PM PDT SUN MAR 26 2017

NOTE: FAIR INDICATES FEW OR NO CLOUDS BELOW 12,000 FEET WITH NO
SIGNIFICANT WEATHER AND/OR OBSTRUCTIONS TO VISIBILITY.

CAZ001-003-270200-
NORTHWEST AREA

CITY           SKY/WX    TMP DP  RH WIND       PRES   REMARKS
CRESCENT CITY  CLOUDY    51  49  92 W10       29.98R
UKIAH          RAIN      53  51  93 SE8       30.01S FOG
$$

CAZ006-505>513-270200-
BAY AREA

CITY           SKY/WX    TMP DP  RH WIND       PRES   REMARKS
SANTA ROSA     LGT RAIN  54  53  97 S9        30.02F VSB 1
SAN RAFAEL     N/A       56  MM  MM MISG
NAPA           RAIN      58  52  80 SW16      30.04F
CONCORD        CLOUDY    62  49  62 S13       30.04F
OAKLAND CITY   N/A      MM  MM  MM MISG
OAKLAND        CLOUDY    62  53  72 SW18      30.05F
SAN FRAN CITY  N/A       57  MM  78 MISG
SAN FRAN ARPT  PTSUNNY   59  49  69 S17       30.05F
LIVERMORE      CLOUDY    61  47  59 S8        30.03F
HAYWARD        LGT RAIN  62  46  55 CALM      30.05F
REDWOOD CITY   N/A       59  MM  72 MISG
MOFFETT ARPT   CLOUDY    62  47  57 S8        30.06F
SAN JOSE ARPT  CLOUDY    62  44  51 S12       30.06F
$$
CAZ034-037-514>518-270200-
CENTRAL COAST

CITY           SKY/WX    TMP DP  RH WIND       PRES   REMARKS
WATSONVILLE    CLOUDY    57  49  74 SW7       30.10F
SALINAS        CLOUDY    60  48  64 NW9       30.09S
MONTEREY       CLOUDY    58  49  72 S7        30.09F
SAN LUIS OBISP SUNNY     61  48  62 NW15      30.08F
SANTA MARIA    MOSUNNY   58  50  75 NW18G25   30.07F
$$
CAZ015-016-270200-
NORTHERN SACRAMENTO VALLEY

CITY           SKY/WX    TMP DP  RH WIND       PRES   REMARKS
REDDING        LGT RAIN  52  44  74 S17       30.00S
RED BLUFF      LGT RAIN  53  48  83 SE17      30.00F
OROVILLE       LGT RAIN  55  47  74 SE12G18   30.06R
$$
CAZ016>018-270200-
SOUTHERN SACRAMENTO VALLEY

CITY           SKY/WX    TMP DP  RH WIND       PRES   REMARKS
AUBURN         CLOUDY    55  39  54 S8        30.04F
BEALE AFB      RAIN      55  50  82 SW3       30.03R
LINCOLN        CLOUDY    57  45  62 S8        30.02F
MARYSVILLE     RAIN      57  51  80 CALM      30.04R
SAC INTL ARPT  CLOUDY    61  49  64 S14       30.03S
MATHER AIRPORT NOT AVBL
DOWNTOWN SAC   N/A       60  MM  MM MISG
SAC EXEC ARPT  LGT RAIN  60  48  64 S6        30.04F
VACAVILLE      LGT RAIN  57  52  83 SW9       30.05F
TRAVIS AFB     LGT RAIN  58  53  84 W5        30.02F
$$
CAZ019>021-270200-
SAN JOAQUIN VALLEY

CITY           SKY/WX    TMP DP  RH WIND       PRES   REMARKS
STOCKTON       CLOUDY    63  47  55 S8        30.03F
MODESTO        MOSUNNY   66  44  45 S7        30.04F
MERCED         SUNNY     64  43  46 W3        30.05F
LEMOORE        MOSUNNY   65  45  48 N5        30.06F
FRESNO         MOSUNNY   66  41  40 NW7       30.06F
HANFORD        CLOUDY    64  49  57 N5        30.06F
PORTERVILLE    SUNNY     65  49  56 NE8       30.07F
BAKERSFIELD    PTSUNNY   68  46  45 W9        30.05F
$$
CAZ011-012-071-270200-
NORTHERN MOUNTAINS

CITY           SKY/WX    TMP DP  RH WIND       PRES   REMARKS
YREKA          CLOUDY    43  36  76 S22       29.93R
MOUNT SHASTA   MIX PCPN  37  34  89 E5        29.97F WCI  33
ALTURAS        LGT RAIN  41  36  82 W15       29.92R
$$
CAZ011-012-071-270200-
SIERRA NEVADA MTNS

CITY           SKY/WX    TMP DP  RH WIND       PRES   REMARKS
BLUE CANYON    LGT RAIN  36  34  92 S10       30.04F WCI  28
TRUCKEE        PTSUNNY   39  30  70 S20       30.00F WCI  30
TAHOE VLY ARPT CLOUDY    40  32  73 S8        30.02F WCI  34
MAMMOTH LAKES  FAIR      47  30  52 W17       30.03S
$$



USA.gov is the U.S. government's official web portal to all federal, state and local government web resources and services.